Weather History for Muskegon, MI

Change the Weather History Date:

Monday, April 1, 2013

  Actual Average Record
Temperature  
Mean Temperature 32 °F 41 °F  
Max Temperature 35 °F 50 °F 78 °F (2010)
Min Temperature 28 °F 32 °F 9 °F (1923)
Degree Days  
Heating Degree Days 33 24  
Month to date heating degree days 33 24  
Since 1 July heating degree days 5489 5686  
Cooling Degree Days 0 0  
Month to date cooling degree days 0 0  
Year to date cooling degree days 0 0  
Moisture  
Dew Point 14 °F    
Average Humidity 49    
Maximum Humidity 56    
Minimum Humidity 41    
Precipitation  
Precipitation T in 0.09 in 0.66 in (1959)
Month to date precipitation T 0.09  
Year to date precipitation 10.69 6.20  
Snow  
Snow T in 0.20 in 5.90 in (1965)
Month to date snowfall T 0.2  
Since 1 July snowfall 98.6 91.6  
Snow Depth 0.00 in    
Sea Level Pressure  
Sea Level Pressure 30.04 in    
Wind  
Wind Speed 14 mph (NW)    
Max Wind Speed 25 mph    
Max Gust Speed 32 mph    
Visibility 10 miles    
Events Snow    
T = Trace of Precipitation, MM = Missing Value Source: NWS Daily Summary

Daily Weather History Graph

Daily Weather History Graph

Search for Another Location

Airport:

Trip Planner

Search our weather history database for the weather conditions in past years. The results will help you decide how hot, cold, wet, or windy it might be!

Date:

Astronomy

Apr. 01, 2013 Rise Set
Actual Time 7:26 AM EDT 8:11 PM EDT
Civil Twilight 6:57 AM EDT 8:40 PM EDT
Nautical Twilight 6:23 AM EDT 9:14 PM EDT
Astronomical Twilight 5:48 AM EDT 9:50 PM EDT
Moon 1:26 AM EDT (4/1) 11:05 AM EDT (4/1)
Length of Visible Light 13h 42m
Length of Day
12h 45m
Waning Gibbous, 67% of the Moon is Illuminated
Apr 1
Waning Gibbous
Apr 3
Last Quarter
Apr 10
New
Apr 18
First Quarter
Apr 25
Full

Hourly Weather History & Observations

Time (EDT) Temp. Windchill Dew Point Humidity Pressure Visibility Wind Dir Wind Speed Gust Speed Precip Events Conditions
12:55 AM 33.1 °F 21.9 °F 19.0 °F 56% 29.84 in 10.0 mi NNW 18.4 mph 23.0 mph N/A   Mostly Cloudy
1:55 AM 32.0 °F 24.2 °F 17.1 °F 54% 29.87 in 10.0 mi NNW 9.2 mph 19.6 mph N/A   Clear
2:55 AM 30.9 °F 20.2 °F 16.0 °F 54% 29.88 in 10.0 mi NNW 15.0 mph - N/A   Clear
3:55 AM 30.9 °F 21.7 °F 16.0 °F 54% 29.91 in 10.0 mi NNW 11.5 mph 20.7 mph N/A   Partly Cloudy
4:55 AM 32.0 °F 21.6 °F 15.1 °F 50% 29.92 in 10.0 mi NW 15.0 mph 21.9 mph N/A   Overcast
5:55 AM 30.9 °F 19.4 °F 14.0 °F 50% 29.94 in 10.0 mi NW 17.3 mph 26.5 mph 0.00 in   Overcast
6:55 AM 28.9 °F 18.2 °F 12.0 °F 49% 29.99 in 10.0 mi NNW 13.8 mph - N/A   Mostly Cloudy
7:55 AM 28.9 °F 18.6 °F 10.9 °F 47% 30.01 in 10.0 mi NNW 12.7 mph - N/A   Mostly Cloudy
8:55 AM 30.0 °F 18.3 °F 10.0 °F 43% 30.04 in 10.0 mi NNW 17.3 mph 23.0 mph N/A   Overcast
9:55 AM 28.9 °F 19.2 °F 14.0 °F 54% 30.05 in 7.0 mi NW 11.5 mph 19.6 mph 0.00 in Snow Light Snow
10:55 AM 30.9 °F 20.7 °F 12.0 °F 46% 30.07 in 10.0 mi NW 13.8 mph 21.9 mph 0.00 in   Overcast
11:55 AM 30.9 °F 20.2 °F 12.9 °F 47% 30.09 in 10.0 mi NW 15.0 mph 21.9 mph N/A   Overcast
12:55 PM 32.0 °F 21.6 °F 12.9 °F 45% 30.10 in 10.0 mi WNW 15.0 mph 23.0 mph N/A   Overcast
1:55 PM 30.9 °F 19.4 °F 15.1 °F 52% 30.11 in 8.0 mi NW 17.3 mph 25.3 mph 0.00 in Snow Light Snow
2:55 PM 34.0 °F 23.0 °F 14.0 °F 44% 30.11 in 10.0 mi WNW 18.4 mph 25.3 mph 0.00 in   Mostly Cloudy
3:55 PM 34.0 °F 25.0 °F 12.9 °F 42% 30.12 in 10.0 mi WNW 12.7 mph 20.7 mph N/A   Overcast
4:55 PM 30.9 °F 19.1 °F 12.9 °F 47% 30.12 in 9.0 mi West 18.4 mph 23.0 mph N/A   Overcast
5:55 PM 32.0 °F 20.8 °F 12.0 °F 44% 30.12 in 10.0 mi WNW 17.3 mph 23.0 mph 0.00 in   Overcast
6:55 PM 30.9 °F 22.8 °F 12.0 °F 46% 30.12 in 10.0 mi WNW 9.2 mph 19.6 mph N/A   Mostly Cloudy
7:55 PM 32.0 °F 24.2 °F 12.0 °F 44% 30.12 in 10.0 mi WNW 9.2 mph 21.9 mph N/A   Overcast
8:55 PM 32.0 °F 23.0 °F 12.9 °F 45% 30.12 in 10.0 mi WNW 11.5 mph - N/A   Overcast
9:55 PM 32.0 °F 22.1 °F 12.0 °F 44% 30.12 in 10.0 mi WNW 13.8 mph 19.6 mph N/A   Clear
10:55 PM 32.0 °F 23.6 °F 12.9 °F 45% 30.13 in 10.0 mi WNW 10.4 mph 17.3 mph N/A   Scattered Clouds
11:55 PM 30.9 °F 20.2 °F 14.0 °F 50% 30.13 in 10.0 mi WNW 15.0 mph 23.0 mph N/A   Partly Cloudy